Regional Weather Roundup
Issued by NWS

Home | Current Version | Previous Version | Graphics & Text | Print | Product List | Glossary On
Versions: 1 2 3 4 5 6 7 8 9 10 11 12 13 14 15 16 17 18 19 20 21 22 23 24 25 26 27 28 29 30 31 32 33 34 35 36 37 38 39 40 41 42 43 44 45 46 47 48 49 50
000
ASUS45 KCYS 271310
RWRWY

WYOMING REGIONAL WEATHER ROUNDUP
NATIONAL WEATHER SERVICE CHEYENNE WY
700 AM MDT WED AUG 27 2014

NOTE:  "FAIR" INDICATES FEW OR NO CLOUDS BELOW 12,000 FEET
WITH NO SIGNIFICANT WEATHER AND/OR OBSTRUCTIONS TO VISIBILITY.

WYZ001-271400-
YELLOWSTONE NATIONAL PARK

CITY           SKY/WX    TMP DP  RH WIND       PRES   REMARKS
LK YELLOWSTONE   N/A     33  32  96 CALM      30.39S
W YELLOWSTONE  NOT AVBL

$$
WYZ002>013-054>058-071-098>099-271400-
NORTHERN WYOMING

CITY           SKY/WX    TMP DP  RH WIND       PRES   REMARKS
JACKSON        CLEAR     43  43 100 CALM      30.31R
CODY           PTCLDY    54  46  76 SW5       30.19S
GREYBULL       PTCLDY    54  48  80 N3        30.14S
WORLAND        NOT AVBL
SHERIDAN       CLEAR     49  45  86 CALM      30.14S
BUFFALO        CLEAR     54  44  69 W6        30.19R
GILLETTE       PTCLDY    53  51  93 E3        30.16R
HULETT         FAIR      52  50  93 MISG      30.18
NEWCASTLE      FAIR      55  54  94 CALM      30.18

$$
WYZ014>020-022>026-101>103-271400-
CENTRAL WYOMING

CITY           SKY/WX    TMP DP  RH WIND       PRES   REMARKS
BIG PINEY      LGT RAIN  49  46  90 S7        30.31R
PINEDALE       CLOUDY    46  45  93 MISG      30.31R
DUBOIS         FAIR      45  37  76 NW7       30.32R
LANDER         CLOUDY    58  47  66 CALM      30.20R
RIVERTON       CLOUDY    55  48  77 N5        30.21R
CASPER         LGT RAIN  55  52  89 NW3       30.19S
DOUGLAS        FOG       57  56  96 NW3       30.19R VSB 1/4

$$
WYZ021-027>030-104>119-271400-
SOUTHERN WYOMING

CITY           SKY/WX    TMP DP  RH WIND       PRES   REMARKS
EVANSTON       CLOUDY    51  45  79 CALM      30.31R
KEMMERER       LGT RAIN  50  46  87 N3        30.33R
FORT BRIDGER   CLOUDY    51  49  90 NW5       30.33R
ROCK SPRINGS   LGT RAIN  51  48  89 SE7       30.30R
DIXON          RAIN      53  51  94 CALM      30.34R
RAWLINS        LGT RAIN  52  48  86 SW16      30.29R
SARATOGA       RAIN      50  48  93 MISG      30.31R
LARAMIE        CLOUDY    51  48  89 CALM      30.27R
CHEYENNE       LGT RAIN  58  53  84 W5        30.22R
TORRINGTON     CLOUDY    63  61  93 NE3       30.12S
PINE BLUFFS    FOG       59  57  94 N6        30.17S VSB<1/4

$$



USA.gov is the U.S. government's official web portal to all federal, state and local government web resources and services.